TimeGMT,TemperatureF,Dew PointF,Humidity,Sea Level PressureIn,VisibilityMPH,Wind Direction,Wind SpeedMPH,Gust SpeedMPH,PrecipitationIn,Events,Conditions,WindDirDegrees,DateUTC
12:20 AM,35.6,26.6,70,30.24,6.2,East,12.7,-,N/A,,Mostly Cloudy,90,2013-02-21 00:20:00
12:50 AM,35.6,26.6,70,30.24,6.2,East,12.7,-,N/A,,Mostly Cloudy,100,2013-02-21 00:50:00
1:20 AM,35.6,24.8,65,30.27,6.2,East,12.7,-,N/A,,Mostly Cloudy,100,2013-02-21 01:20:00
1:50 AM,33.8,24.8,70,30.27,6.2,ESE,12.7,-,N/A,,Overcast,110,2013-02-21 01:50:00
2:20 AM,33.8,24.8,70,30.27,6.2,East,12.7,-,N/A,,Overcast,90,2013-02-21 02:20:00
2:50 AM,33.8,23.0,65,30.27,6.2,East,13.8,-,N/A,,Mostly Cloudy,100,2013-02-21 02:50:00
3:20 AM,33.8,23.0,65,30.24,6.2,East,10.4,-,N/A,,Mostly Cloudy,100,2013-02-21 03:20:00
3:50 AM,33.8,23.0,65,30.24,6.2,East,9.2,-,N/A,,Mostly Cloudy,100,2013-02-21 03:50:00
4:20 AM,33.8,23.0,65,30.24,6.2,East,9.2,-,N/A,,Mostly Cloudy,90,2013-02-21 04:20:00
4:50 AM,33.8,23.0,65,30.24,6.2,East,12.7,-,N/A,,Mostly Cloudy,100,2013-02-21 04:50:00
5:20 AM,33.8,23.0,65,30.24,6.2,East,13.8,-,N/A,,Mostly Cloudy,100,2013-02-21 05:20:00
5:50 AM,34,23,54,30.25,12,East,11.5,,,,,90,2013-02-21 05:50:00
5:50 AM,33.8,23.0,65,30.24,6.2,East,12.7,-,N/A,,Mostly Cloudy,90,2013-02-21 05:50:00
6:20 AM,33.8,23.0,65,30.24,6.2,East,11.5,-,N/A,,Mostly Cloudy,90,2013-02-21 06:20:00
6:50 AM,33.8,23.0,65,30.24,6.2,East,13.8,-,N/A,,Mostly Cloudy,90,2013-02-21 06:50:00
7:20 AM,33.8,23.0,65,30.24,6.2,East,15.0,-,N/A,,Mostly Cloudy,90,2013-02-21 07:20:00
7:50 AM,33.8,23.0,65,30.27,6.2,East,15.0,-,N/A,,Mostly Cloudy,90,2013-02-21 07:50:00
8:20 AM,35.6,23.0,60,30.27,6.2,East,13.8,-,N/A,,Mostly Cloudy,90,2013-02-21 08:20:00
8:50 AM,35,23,50,30.27,13,ENE,10.4,,,,Overcast,70,2013-02-21 08:50:00
8:50 AM,35.6,23.0,60,30.27,6.2,ENE,11.5,-,N/A,,Mostly Cloudy,70,2013-02-21 08:50:00
9:20 AM,35.6,23.0,60,30.27,6.2,East,15.0,-,N/A,,Mostly Cloudy,90,2013-02-21 09:20:00
9:50 AM,35.6,21.2,56,30.27,6.2,East,16.1,-,N/A,,Mostly Cloudy,90,2013-02-21 09:50:00
10:20 AM,35.6,21.2,56,30.27,6.2,East,12.7,-,N/A,,Mostly Cloudy,90,2013-02-21 10:20:00
10:50 AM,35.6,23.0,60,30.27,6.2,East,15.0,-,N/A,,Mostly Cloudy,90,2013-02-21 10:50:00
11:20 AM,35.6,23.0,60,30.27,6.2,East,16.1,-,N/A,,Mostly Cloudy,90,2013-02-21 11:20:00
11:50 AM,35,23,51,30.27,16,East,15.0,,,,Overcast,90,2013-02-21 11:50:00
11:50 AM,35.6,23.0,60,30.27,6.2,East,16.1,-,N/A,,Mostly Cloudy,100,2013-02-21 11:50:00
12:20 PM,35.6,23.0,60,30.24,6.2,East,15.0,-,N/A,,Mostly Cloudy,100,2013-02-21 12:20:00
12:50 PM,35.6,21.2,56,30.24,6.2,East,13.8,-,N/A,,Mostly Cloudy,100,2013-02-21 12:50:00
1:20 PM,35.6,23.0,60,30.21,6.2,East,15.0,-,N/A,,Mostly Cloudy,100,2013-02-21 13:20:00
1:50 PM,35.6,21.2,56,30.21,6.2,East,13.8,-,N/A,,Mostly Cloudy,80,2013-02-21 13:50:00
2:20 PM,35.6,21.2,56,30.21,6.2,East,12.7,-,N/A,,Mostly Cloudy,90,2013-02-21 14:20:00
2:50 PM,36,22,43,30.22,19,ENE,11.5,,,,Overcast,70,2013-02-21 14:50:00
2:50 PM,35.6,21.2,56,30.21,6.2,East,12.7,-,N/A,,Mostly Cloudy,80,2013-02-21 14:50:00
3:20 PM,35.6,19.4,52,30.21,6.2,East,12.7,-,N/A,,Mostly Cloudy,80,2013-02-21 15:20:00
3:50 PM,35.6,19.4,52,30.21,6.2,East,12.7,-,N/A,,Mostly Cloudy,80,2013-02-21 15:50:00
4:20 PM,33.8,19.4,56,30.21,6.2,ENE,12.7,-,N/A,,Mostly Cloudy,70,2013-02-21 16:20:00
4:50 PM,33.8,19.4,56,30.21,6.2,ENE,12.7,-,N/A,,Mostly Cloudy,70,2013-02-21 16:50:00
5:20 PM,33.8,21.2,60,30.21,6.2,East,13.8,-,N/A,,Mostly Cloudy,80,2013-02-21 17:20:00
5:50 PM,35,21,43,30.22,22,ENE,12.7,,,,Overcast,70,2013-02-21 17:50:00
5:50 PM,33.8,21.2,60,30.21,6.2,ENE,11.5,-,N/A,,Mostly Cloudy,70,2013-02-21 17:50:00
6:20 PM,33.8,21.2,60,30.21,6.2,ENE,11.5,-,N/A,,Mostly Cloudy,70,2013-02-21 18:20:00
6:50 PM,33.8,19.4,56,30.21,6.2,East,13.8,-,N/A,,Overcast,80,2013-02-21 18:50:00
7:20 PM,33.8,19.4,56,30.21,6.2,ENE,12.7,-,N/A,,Mostly Cloudy,70,2013-02-21 19:20:00
7:50 PM,33.8,19.4,56,30.21,6.2,ENE,12.7,-,N/A,,Mostly Cloudy,70,2013-02-21 19:50:00
8:20 PM,33.8,19.4,56,30.18,6.2,ENE,15.0,-,N/A,,Mostly Cloudy,70,2013-02-21 20:20:00
8:50 PM,33,20,46,30.20,25,ENE,10.4,,,,Overcast,70,2013-02-21 20:50:00
8:50 PM,33.8,19.4,56,30.18,6.2,ENE,11.5,-,N/A,,Mostly Cloudy,70,2013-02-21 20:50:00
9:20 PM,33.8,19.4,56,30.18,6.2,ENE,11.5,-,N/A,,Overcast,70,2013-02-21 21:20:00
9:50 PM,33.8,19.4,56,30.18,6.2,ENE,12.7,-,N/A,,Overcast,60,2013-02-21 21:50:00
10:20 PM,33.8,19.4,56,30.18,6.2,ENE,11.5,-,N/A,,Mostly Cloudy,70,2013-02-21 22:20:00
10:50 PM,33.8,19.4,56,30.18,6.2,ENE,12.7,-,N/A,,Mostly Cloudy,60,2013-02-21 22:50:00
11:20 PM,33.8,19.4,56,30.18,6.2,ENE,12.7,-,N/A,,Mostly Cloudy,60,2013-02-21 23:20:00
11:50 PM,34,19,41,30.18,22,ENE,15.0,,,,Overcast,60,2013-02-21 23:50:00
11:50 PM,33.8,19.4,56,30.18,6.2,ENE,13.8,25.3,N/A,,Mostly Cloudy,70,2013-02-21 23:50:00